www.pogodaiklimat.ru

Погода и климат >> Архив погоды >> Австралия >> Shark Bay Airport


ПОГОДА в Shark Bay Airport

  • Прогноз погоды в Shark Bay Airport
  • Монитор погоды в Shark Bay Airport
  • Климат города

АРХИВ ПОГОДЫ в Shark Bay Airport

Время (UTC), дата Ветер
(напр.,м/с)
 
Видим.   Явления Облачность Т
(С)
Тd
(С)
f
(%)
Тe
(С)
Тes
(С)
Комфортность P
(гПа)
Po
(гПа)
Тmin
(С)
Tmax
(С)
R
(мм)
R24
(мм)
S
(см)
13 9.10 Ю 4 н/о н/о +19.0 +14.3 74 +20 +20 1014.7 1010.7 +26.2
15 9.10 ЮЗ 4 н/о н/о +18.6 +14.5 77 +19 +19 1014.5 1010.5
16 9.10 Ю 4 н/о н/о +17.6 +13.9 79 +17 +17 1014.2 1010.2
18 9.10 Ю 5 н/о н/о +18.7 +13.6 72 +19 +19 1013.7 1009.7
19 9.10 ЮЗ 5 н/о н/о +18.6 +12.6 68 +19 +19 1013.3 1009.3
21 9.10 ЮЗ 4 н/о н/о +18.3 +12.1 67 +18 +18 1013.4 1009.4
22 9.10 ЮЗ 4 н/о н/о +17.9 +12.1 69 +18 +18 1013.7 1009.7
00 10.10 ЮЗ 4 н/о н/о +20.4 +10.5 53 +22 +22 комфорт 1014.8 1010.8
01 10.10 ЮЗ 3 н/о н/о +21.8 +9.3 45 +23 +23 комфорт 1015.2 1011.2 +17.0
03 10.10 З 5 н/о н/о +23.7 +9.7 41 +25 +25 комфорт 1015.2 1011.2
04 10.10 ЮЗ 5 н/о н/о +22.2 +11.3 50 +24 +24 комфорт 1014.7 1010.7
06 10.10 З 6 н/о н/о +23.5 +9.9 42 +25 +25 комфорт 1013.9 1009.9
07 10.10 ЮЗ 7 н/о н/о +23.6 +10.6 44 +25 +25 комфорт 1013.5 1009.5
09 10.10 ЮЗ 7 н/о н/о +21.7 +10.2 48 +23 +23 комфорт 1013.5 1009.5
10 10.10 ЮЗ 6 н/о н/о +20.3 +10.7 54 +22 +22 комфорт 1013.8 1009.8
12 10.10 ЮЗ 4 н/о н/о +18.6 +11.2 62 +19 +19 1014.7 1010.7
13 10.10 ЮЗ 5 н/о н/о +18.1 +11.7 66 +18 +18 1014.9 1010.9 +24.9
15 10.10 Ю 3 н/о н/о +16.5 +11.4 72 +16 +16 1014.6 1010.6
16 10.10 Ю 3 н/о н/о +14.7 +10.3 75 +14 +14 1013.9 1009.9
18 10.10 ЮЗ 4 н/о н/о +17.3 +10.9 66 +17 +17 1013.5 1009.5
19 10.10 ЮЗ 3 н/о н/о +15.1 +10.3 73 +14 +14 1013.4 1009.4
21 10.10 ЮЗ 2 н/о н/о +14.6 +9.4 71 +14 +14 1013.4 1009.4
22 10.10 штиль 0 н/о н/о +13.4 +9.5 77 +13 +13 1013.7 1009.7
00 11.10 ЮВ 3 н/о н/о +20.9 +13.1 61 +24 +24 комфорт 1014.2 1010.2
01 11.10 ЮЗ 5 н/о н/о +21.4 +12.0 55 +24 +24 комфорт 1014.9 1010.9 +13.3
03 11.10 ЮЗ 5 н/о н/о +23.6 +12.3 49 +25 +25 комфорт 1014.8 1010.8
04 11.10 З 5 н/о н/о +25.8 +12.6 44 +28 +28 жарко 1014.4 1010.4
06 11.10 ЮЗ 5 н/о н/о +25.5 +13.4 47 +28 +28 жарко 1013.9 1009.9
07 11.10 ЮЗ 6 н/о н/о +24.5 +10.8 42 +26 +26 жарко 1013.8 1009.8
09 11.10 ЮЗ 6 н/о н/о +22.5 +10.9 48 +25 +25 комфорт 1013.7 1009.7
10 11.10 ЮЗ 5 н/о н/о +20.7 +11.1 54 +23 +23 комфорт 1014.2 1010.2
12 11.10 ЮЗ 4 н/о н/о +18.9 +12.2 65 +20 +20 1015.3 1011.3
13 11.10 ЮЗ 3 н/о н/о +17.8 +12.3 70 +18 +18 1015.4 1011.4 +26.0
15 11.10 ЮЗ 3 н/о н/о +16.5 +12.7 78 +16 +16 1014.7 1010.7
16 11.10 З 3 н/о н/о +16.4 +12.4 77 +16 +16 1014.0 1010.0
18 11.10 ЮЗ 3 н/о н/о +16.2 +13.3 83 +16 +16 1013.7 1009.7
19 11.10 Ю 3 н/о н/о +14.8 +12.1 84 +14 +14 1013.6 1009.6
21 11.10 Ю 3 н/о н/о +13.6 +11.1 85 +13 +13 1013.4 1009.4
22 11.10 ЮВ 3 н/о н/о +13.1 +11.0 87 +12 +12 1013.8 1009.8
00 12.10 Ю 3 н/о н/о +20.9 +13.8 64 +24 +24 комфорт 1014.3 1010.3
01 12.10 ЮЗ 3 н/о н/о +21.6 +13.0 58 +24 +24 комфорт 1014.6 1010.6 +13.1
03 12.10 З 5 н/о н/о +26.1 +12.2 42 +28 +28 жарко 1014.1 1010.1
04 12.10 СЗ 5 н/о н/о +26.4 +11.7 40 +28 +28 жарко 1013.6 1009.6
06 12.10 З 6 н/о н/о +26.5 +12.5 42 +28 +28 жарко 1012.4 1008.4
07 12.10 СЗ 6 н/о н/о +25.7 +13.5 47 +28 +28 жарко 1012.0 1008.0
09 12.10 З 6 н/о н/о +22.7 +14.0 58 +26 +26 жарко 1012.0 1008.0
10 12.10 З 7 н/о н/о +21.9 +14.0 61 +25 +25 комфорт 1012.5 1008.5
12 12.10 З 5 н/о н/о +20.3 +13.7 66 +22 +22 комфорт 1012.9 1008.9
13 12.10 З 2 н/о н/о +19.7 +13.4 67 +22 +22 комфорт 1012.5 1008.5 +27.3
15 12.10 З 3 н/о н/о +19.4 +14.2 72 +21 +21 комфорт 1012.6 1008.6
16 12.10 СЗ 2 н/о н/о +19.2 +13.8 71 +21 +21 комфорт 1012.1 1008.1
18 12.10 С 2 н/о н/о +19.4 +14.2 72 +22 +22 комфорт 1010.4 1006.4
19 12.10 С 3 н/о н/о +19.5 +14.1 71 +22 +22 комфорт 1010.2 1006.2
21 12.10 С 5 н/о н/о +18.5 +15.7 84 +19 +19 1009.4 1005.4
22 12.10 С 5 н/о н/о +19.0 +17.8 93 +20 +20 1009.3 1005.3
00 13.10 СЗ 9 н/о н/о +20.4 +17.3 82 1009.0 1005.0
01 13.10 З 7 н/о в посл. час дождь {туман} н/о +20.3 +19 +19 1009.5 1005.5 +18.5
03 13.10 ЮЗ 6 н/о н/о +23.2 +17.7 71 +29 +29 душно 1010.2 1006.2
04 13.10 ЮЗ 4 н/о н/о +23.1 +17.1 69 +28 +28 душно 1009.7 1005.7
06 13.10 З 7 н/о н/о +25.4 +15.7 55 +29 +29 душно 1009.5 1005.5
07 13.10 З 8 н/о н/о +24.3 +15.2 57 +27 +27 жарко 1009.5 1005.5
09 13.10 З 7 н/о н/о +22.7 +16.0 66 +27 +27 душно 1009.5 1005.5
10 13.10 З 6 н/о н/о +21.0 +15.3 70 +24 +24 комфорт 1009.9 1005.9
12 13.10 З 5 н/о н/о +19.5 +14.3 72 +21 +21 комфорт 1011.2 1007.2
13 13.10 ЮЗ 4 н/о в посл. час дождь {туман} н/о +17.5 +15.7 89 +17 +17 1011.9 1007.9 +26.2
15 13.10 З 8 н/о н/о +18.4 +15.5 83 +18 +18 1011.7 1007.7
16 13.10 З 7 н/о н/о +18.2 +14.3 78 +18 +18 1011.7 1007.7
18 13.10 З 8 н/о н/о +18.5 +13.1 71 +18 +18 1011.2 1007.2
19 13.10 ЮЗ 8 н/о н/о +18.4 +12.6 69 +18 +18 1011.1 1007.1
21 13.10 З 7 н/о н/о +18.8 +13.2 70 +19 +19 1011.5 1007.5
22 13.10 З 8 н/о туман местами н/о +18.3 +14.4 78 +18 +18 1012.3 1008.3
00 14.10 ЮЗ 9 н/о н/о +20.5 +10.0 51 +21 +21 комфорт 1013.9 1009.9
01 14.10 ЮЗ 9 н/о {туман} н/о +21.3 +10.5 50 +23 +23 комфорт 1014.7 1010.7 +17.6
03 14.10 ЮЗ 8 н/о н/о +21.1 +10.3 50 +23 +23 комфорт 1015.3 1011.3
04 14.10 ЮЗ 7 н/о н/о +23.0 +10.1 44 +25 +25 комфорт 1015.5 1011.5
06 14.10 ЮЗ 8 н/о н/о +22.3 +8.8 42 +24 +24 комфорт 1015.6 1011.6
07 14.10 ЮЗ 7 н/о н/о +22.5 +8.6 41 +24 +24 комфорт 1015.6 1011.6
09 14.10 ЮЗ 7 н/о н/о +20.8 +8.8 46 +22 +22 комфорт 1016.3 1012.3
10 14.10 ЮЗ 7 н/о н/о +19.7 +8.7 49 +20 +20 1017.0 1013.0
12 14.10 Ю 4 н/о н/о +17.6 +8.7 56 +17 +17 1018.2 1014.2
13 14.10 Ю 4 н/о н/о +18.0 +9.9 59 +18 +18 1018.8 1014.8 +23.6
15 14.10 Ю 3 н/о н/о +17.3 +10.2 63 +17 +17 1018.6 1014.6
16 14.10 Ю 3 н/о н/о +14.2 +8.8 70 +13 +13 1018.2 1014.2
18 14.10 Ю 4 н/о н/о +13.0 +8.9 76 +11 +11 1017.4 1013.4
19 14.10 Ю 4 н/о н/о +12.6 +9.1 79 +11 +11 1017.6 1013.6
21 14.10 ЮВ 4 н/о н/о +13.2 +9.8 80 +12 +12 1018.0 1014.0
22 14.10 ЮВ 4 н/о н/о +12.3 +9.7 84 +10 +10 1018.7 1014.7
00 15.10 В 7 н/о н/о +18.9 +10.5 58 +19 +19 1019.6 1015.6
01 15.10 В 7 н/о н/о +20.3 +9.8 51 +21 +21 комфорт 1019.7 1015.7 +12.2
03 15.10 ЮВ 6 н/о н/о +22.6 +8.0 39 +24 +24 комфорт 1019.2 1015.2
04 15.10 В 5 н/о н/о +23.7 +8.2 37 +24 +24 комфорт 1018.7 1014.7
06 15.10 ЮЗ 6 н/о н/о +24.1 +7.3 34 +24 +24 комфорт 1018.0 1014.0
07 15.10 ЮЗ 6 н/о н/о +24.9 +6.1 30 +25 +25 комфорт 1017.3 1013.3
09 15.10 Ю 8 н/о н/о +22.7 +9.8 44 +24 +24 комфорт 1017.5 1013.5
10 15.10 Ю 8 н/о н/о +20.9 +10.7 52 +22 +22 комфорт 1017.7 1013.7
12 15.10 Ю 7 н/о н/о +18.6 +12.6 68 +19 +19 1018.8 1014.8
13 15.10 Ю 7 н/о н/о +18.0 +12.7 71 +17 +17 1019.1 1015.1 +25.4
15 15.10 Ю 6 н/о н/о +17.7 +13.0 74 +17 +17 1018.7 1014.7
16 15.10 Ю 6 н/о н/о +17.3 +13.0 76 +17 +17 1018.3 1014.3
18 15.10 Ю 6 н/о н/о +16.7 +12.5 76 +16 +16 1017.4 1013.4
19 15.10 Ю 6 н/о н/о +16.1 +11.9 76 +15 +15 1017.2 1013.2
21 15.10 ЮВ 5 н/о н/о +14.9 +11.5 80 +13 +13 1016.9 1012.9
22 15.10 ЮВ 3 н/о н/о +13.8 +11.1 84 +13 +13 1017.2 1013.2
00 16.10 ЮВ 5 н/о н/о +20.8 +11.7 56 +23 +23 комфорт 1017.6 1013.6
01 16.10 ЮВ 4 н/о н/о +24.3 +10.2 41 +25 +25 комфорт 1017.4 1013.4 +13.9
03 16.10 ЮВ 4 н/о н/о +29.5 +8.0 26 +29 +29 жарко 1016.1 1012.1
04 16.10 З 3 н/о н/о +30.8 +1.2 15 +28 +28 жарко 1015.4 1011.4
06 16.10 ЮЗ 6 н/о н/о +30.4 +5.6 21 +29 +29 жарко 1014.2 1010.2
07 16.10 ЮЗ 6 н/о н/о +30.5 +5.7 21 +29 +29 жарко 1013.5 1009.5
09 16.10 ЮЗ 7 н/о н/о +27.2 +11.3 37 +28 +28 жарко 1013.1 1009.1
10 16.10 ЮЗ 7 н/о н/о +24.5 +13.1 49 +27 +27 жарко 1013.4 1009.4
12 16.10 Ю 6 н/о н/о +20.7 +15.0 70 +23 +23 комфорт 1014.2 1010.2

 

Местоположение метеостанции Shark Bay Airport (Западная Австралия, Австралия): широта -25.90 долгота 113.58 высота над уровнем моря 34 м.

В архиве по умолчанию представлена погода в Shark Bay Airport за последнюю неделю. Архивные данные за месяц целиком и за предыдущие месяцы, начиная с января 2011 года, Вы можете получить, выбрав интересующий диапазон дат из раскрывающегося списка и нажав кнопку "Ввод!".


*Определитесь, кто Вы:
робот инопланетянин человек

Внимание! Время в таблицах - всемирное. Для получения местного времени необходимо прибавить поправку, которая в Shark Bay Airport равна 8 ч.

Смотрите также архив погоды в соседних городах и на ближайших метеорологических станциях:

Погода в Carnarvon Airport (Западная Австралия, Австралия) (114 км)
Погода в Geraldton Airport (Западная Австралия, Австралия) (341 км)
Погода в Learmonth Airport (Западная Австралия, Австралия) (411 км)
Погода в Morawa Airport (Западная Австралия, Австралия) (439 км)
Погода в Mount Magnet Aero (Западная Австралия, Австралия) (488 км)
Погода в Onslow Airport (Западная Австралия, Австралия) (496 км)
Погода в Meekatharra Airport (Западная Австралия, Австралия) (502 км)
Погода в Thevenard Island (Западная Австралия, Австралия) (516 км)
Погода в Paraburdoo Aero (Западная Австралия, Австралия) (520 км)
Погода в Rottnest Island Lighthouse (Западная Австралия, Австралия) (529 км)

Пояснения к столбцам:

Ветер - указаны скорость ветра в м/с - средняя за 10 мин, порывы в срок и между сроками (в фигурных скобках) и направление, откуда дует ветер: С - северный, СВ - северо-восточный, В - восточный, ЮВ - юго-восточный, Ю - южный, ЮЗ - юго-западный, З - западный, СЗ - северо-западный.
Видимость - горизонтальная дальность видимости в метрах или километрах. При видимости от 1 до 10 км при отсутствии осадков обычно наблюдается дымка, при ухудшении видимости до 1 км и менее - туман. В сухую погоду видимость может ухудшаться дымом, пылью или мглою.
Явления - указаны атмосферные явления, наблюдавшиеся в срок или в последний час перед сроком; фигурными скобками обозначены явления, наблюдавшиеся между сроками (за 1-3 часа до срока); квадратными скобками обозначены град или гололедные отложения с указанием их диаметра в мм.
Облачность - указаны через наклонную черту общая и нижняя облачность в баллах и высота нижней границы облаков в метрах; квадратными скобками обозначены формы облаков: Ci - перистые, Cs - перисто-слоистые, Cc - перисто-кучевые, Ac - высококучевые, As - высокослоистые, Sc - слоисто-кучевые, Ns - слоисто-дождевые, Cu - кучевые, Cb - кучево-дождевые. Подробнее классификацию облаков см. в Атласе облаков (PDF).
T - Температура воздуха - температура, измеренная на высоте 2 м над землей.
Td - Температура точки росы - температура, при понижении до которой содержащийся в воздухе водяной пар достигнет насыщения.
f - Относительная влажность воздуха - влажноcть воздуха, измеренная на высоте 2 м над землей.
Te - Эффективная температура - температура, которую ощущает одетый по сезону человек в тени. Характеристика душности погоды. При расчете учитывается влияние влажности воздуха и скорости ветра на теплоощущения человека.
Tes - Эффективная температура на солнце - температура, которую ощущает человек, с поправкой на солнечный нагрев. Характеристика знойности погоды. Зависит от высоты солнца над горизонтом, облачности и скорости ветра. Ночью, в пасмурную погоду, а также при ветре 12 м/с и более поправка равна нулю.
P - Атмосферное давление - приведенное к уровню моря атмосферное давление.
Po - Атмосферное давление - измеренное на уровне метеостанции атмосферное давление.
Tmin - Минимальная температура - минимум температуры воздуха на высоте 2 м над землей.
Tmax - Максимальная температура - максимум температуры воздуха на высоте 2 м над землей.
R - Количество осадков - Количество выпавших осадков за период времени, мм. При наведении курсора мыши на число - период времени, за который выпало указанное количество осадков.
R24 - Количество осадков - Количество выпавших осадков за 24 часа, мм.
S - Снежный покров - Высота снежного покрова, см. При наведении курсора мыши на число - состояние снежного покрова и степень покрытия местности в баллах.